Laramie, WY

8:03 AM MDT on April 25, 2017 (GMT -0600)
Laramie Regional

Weather History for KLAR - January, 2013

Change the Weather History Date:

Monday, January 14, 2013

  Actual Average Record
Temperature  
Mean Temperature -11 °F 22 °F  
Max Temperature 0 °F 34 °F 53 °F (1969)
Min Temperature -23 °F 10 °F -23 °F (2013)
Degree Days  
Heating Degree Days 76 43  
Month to date heating degree days 776 603  
Since 1 July heating degree days 3986 4276  
Cooling Degree Days 0 0  
Month to date cooling degree days 0 0  
Year to date cooling degree days 0 0  
Moisture  
Dew Point -16 °F    
Average Humidity 78    
Maximum Humidity 92    
Minimum Humidity 64    
Precipitation  
Precipitation 0.00 in 0.01 in 0.25 in (1967)
Month to date precipitation T 0.12  
Year to date precipitation T 0.12  
Sea Level Pressure  
Sea Level Pressure 30.36 in    
Wind  
Wind Speed 5 mph (SSE)    
Max Wind Speed 18 mph    
Max Gust Speed 21 mph    
Visibility 10 miles    
Events      
T = Trace of Precipitation, MM = Missing Value Source: NWS Daily Summary

Daily Weather History Graph

Daily Weather History Graph

Search for Another Location

Airport or City:

Trip Planner

Search our weather history database for the weather conditions in past years. The results will help you decide how hot, cold, wet, or windy it might be!

Date:

Astronomy

Jan. 14, 2013 Rise Set
Actual Time 7:26 AM MST 4:57 PM MST
Civil Twilight 6:56 AM MST 5:28 PM MST
Nautical Twilight 6:21 AM MST 6:02 PM MST
Astronomical Twilight 5:48 AM MST 6:35 PM MST
Moon 8:59 AM MST (1/14) 8:48 PM MST (1/14)
Length of Visible Light 10h 32m
Length of Day
9h 31m
Waxing Crescent, 12% of the Moon is Illuminated
Jan 14
Waxing Crescent
Jan 18
First Quarter
Jan 26
Full
Feb 3
Last Quarter
Feb 10
New

Hourly Weather History & Observations

Time (MST) Temp. Windchill Dew Point Humidity Pressure Visibility Wind Dir Wind Speed Gust Speed Precip Events Conditions
12:53 AM -14.1 °F -23.9 °F -18.0 °F 82% 30.31 in 10.0 mi WSW 3.5 mph - N/A   Clear
1:53 AM -16.1 °F -28.6 °F -18.9 °F 87% 30.33 in 10.0 mi SSW 4.6 mph - N/A   Clear
2:53 AM -20.0 °F - -24.0 °F 82% 30.35 in 10.0 mi Calm Calm - N/A   Clear
3:53 AM -16.1 °F - -18.9 °F 87% 30.33 in 10.0 mi Calm Calm - N/A   Clear
4:53 AM -18.9 °F -37.2 °F -23.1 °F 81% 30.35 in 10.0 mi SSE 8.1 mph - N/A   Clear
5:53 AM -20.0 °F -35.3 °F -24.0 °F 82% 30.38 in 10.0 mi ESE 5.8 mph - N/A   Clear
6:53 AM -17.0 °F -29.7 °F -20.9 °F 82% 30.39 in 3.0 mi SE 4.6 mph - N/A   Clear
7:53 AM -20.9 °F -31.7 °F -25.1 °F 81% 30.47 in 10.0 mi WSW 3.5 mph - N/A   Clear
8:53 AM -15.0 °F -27.4 °F -18.9 °F 82% 30.46 in 10.0 mi SE 4.6 mph - N/A   Clear
9:53 AM -9.9 °F - -11.9 °F 91% 30.42 in 10.0 mi Calm Calm - N/A   Clear
10:53 AM -6.0 °F - -9.9 °F 83% 30.38 in 10.0 mi Calm Calm - N/A   Clear
11:53 AM -4.0 °F -12.4 °F -11.0 °F 72% 30.35 in 10.0 mi NNE 3.5 mph - N/A   Clear
12:53 PM -2.9 °F -16.5 °F -11.0 °F 68% 30.29 in 10.0 mi North 6.9 mph - N/A   Clear
1:53 PM -0.0 °F -14.2 °F -9.9 °F 63% 30.28 in 10.0 mi NNE 8.1 mph - N/A   Clear
3:53 PM -0.9 °F -14.1 °F -9.0 °F 69% 30.32 in 10.0 mi NE 6.9 mph - N/A   Clear
4:53 PM -5.1 °F -13.6 °F -11.0 °F 76% 30.37 in 10.0 mi East 3.5 mph - N/A   Clear
5:53 PM -8.0 °F -21.0 °F -13.0 °F 79% 30.39 in 10.0 mi SE 5.8 mph - N/A   Clear
6:53 PM -11.0 °F -24.6 °F -15.0 °F 83% 30.40 in 10.0 mi SE 5.8 mph - N/A   Clear
7:53 PM -6.0 °F -23.6 °F -15.0 °F 65% 30.39 in 10.0 mi WSW 10.4 mph - N/A   Clear
8:53 PM -5.1 °F -27.2 °F -14.1 °F 65% 30.34 in 10.0 mi SW 17.3 mph - N/A   Clear
9:53 PM -9.9 °F -23.4 °F -18.0 °F 68% 30.34 in 10.0 mi West 5.8 mph - N/A   Clear
10:53 PM -9.9 °F - -18.0 °F 68% 30.33 in 10.0 mi Calm Calm - N/A   Mostly Cloudy
11:53 PM -11.0 °F - -18.9 °F 68% 30.33 in 10.0 mi Calm Calm - N/A   Clear